Regional Weather Roundup
Issued by NWS Little Rock, AR

Home | Current Version | Previous Version | Graphics & Text | Print | Product List | Glossary On
Versions: 1 2 3 4 5 6 7 8 9 10 11 12 13 14 15 16 17 18 19 20 21 22 23 24 25 26 27 28 29 30 31 32 33 34 35 36 37 38 39 40 41 42 43 44 45 46 47
000
ASUS44 KLZK 040605
RWRLZK

WEATHER ROUNDUP FOR ARKANSAS
NATIONAL WEATHER SERVICE LITTLE ROCK AR
100 AM CDT SAT JUL 04 2015

NOTE: "FAIR" INDICATES FEW OR NO CLOUDS BELOW 12,000 FEET WITH NO
SIGNIFICANT WEATHER AND/OR OBSTRUCTIONS TO VISIBILITY.

ARZ001-003-010-029-040700-
NORTHWEST ARKANSAS

CITY           SKY/WX    TMP DP  RH WIND       PRES   REMARKS
FAYETTEVILLE   FOG       65  65 100 CALM      29.96S VSB 1/4
6HR MIN TEMP:  65; 6HR MAX TEMP:  74; 6HR PCP:  0.30;

FORT SMITH     CLEAR     72  69  90 CALM      29.92F
6HR MIN TEMP:  71; 6HR MAX TEMP:  80; 6HR PCP:  0.60;

HARRISON       FOG       68  68 100 NW3       29.96S VSB<1/4
6HR MIN TEMP:  67; 6HR MAX TEMP:  76;

BENTONVILLE    MOCLDY   N/A N/A N/A CALM      29.96S
ROGERS         PTCLDY    68  68 100 CALM      29.97S FOG
SILOAM SPGS    CLEAR     68  63  83 NE5         N/A
6HR MIN TEMP:  66; 6HR MAX TEMP:  73;

HIGHFILL       PTCLDY    68  68 100 CALM      29.96S FOG
6HR MIN TEMP:  68; 6HR MAX TEMP:  76;

$$

ARZ004-005-016-040700-
NORTH CENTRAL ARKANSAS

CITY           SKY/WX    TMP DP  RH WIND       PRES   REMARKS
BATESVILLE     CLOUDY    70  66  88 SW5       29.92S VSB 1/4
6HR MIN TEMP:  68; 6HR MAX TEMP:  72;

FLIPPIN        MOCLDY    68  66  94 S3        29.92S
6HR MIN TEMP:  68; 6HR MAX TEMP:  73;

MTN HOME       CLEAR     68  67  96 CALM      29.93S
6HR MIN TEMP:  68; 6HR MAX TEMP:  71;

$$

ARZ040-041-040700-
WEST CENTRAL ARKANSAS

CITY           SKY/WX    TMP DP  RH WIND       PRES   REMARKS
MENA           MOCLDY    72  70  94 CALM      29.95F
MOUNT IDA      PTCLDY    72  70  93 CALM      29.92F
6HR MIN TEMP:  72; 6HR MAX TEMP:  83; 6HR PCP:  0.01;

$$

ARZ009-017-025-026-028-040700-
NORTHEAST ARKANSAS

CITY           SKY/WX    TMP DP  RH WIND       PRES   REMARKS
JONESBORO      MOCLDY    71  70  96 NW3       29.90F
6HR MIN TEMP:  70; 6HR MAX TEMP:  75;

NEWPORT        CLOUDY    71  71 100 S3        29.92F
6HR MIN TEMP:  71; 6HR MAX TEMP:  74;

WALNUT RIDGE   PTCLDY    72  68  88 CALM      29.90F
6HR MIN TEMP:  72; 6HR MAX TEMP:  75;

BLYTHEVILLE    MOCLDY    74  73  97 SW6       29.91F
6HR MIN TEMP:  73; 6HR MAX TEMP:  77;

$$

ARZ022-023-033-042-044-040700-
CENTRAL ARKANSAS

CITY           SKY/WX    TMP DP  RH WIND       PRES   REMARKS
LITTLE ROCK    LGT RAIN  71  67  87 SW10      29.91S
6HR MIN TEMP:  70; 6HR MAX TEMP:  77; 6HR PCP:  0.20;

N LITTLE ROCK    N/A     70  69  96 W6        29.91S
6HR MIN TEMP:  69; 6HR MAX TEMP:  76;

JACKSONVILLE   MOCLDY    70  69  98 N2        29.91S
6HR MIN TEMP:  70; 6HR MAX TEMP:  78; 6HR PCP:  0.11;

SEARCY         CLOUDY    72  70  93 N7        29.92F
6HR MIN TEMP:  72; 6HR MAX TEMP:  79; 6HR PCP:  0.02;

HOT SPRINGS    MOCLDY    71  69  93 CALM      29.92F
6HR MIN TEMP:  70; 6HR MAX TEMP:  82; 6HR PCP:  0.46;

RUSSELLVILLE   PTCLDY    70  69  97 CALM      29.90F
6HR MIN TEMP:  70; 6HR MAX TEMP:  83; 6HR PCP:  0.67;

CLINTON        MOCLDY    68  68 100 CALM      29.94F
$$

ARZ036-040700-
EAST ARKANSAS

CITY           SKY/WX    TMP DP  RH WIND       PRES   REMARKS
WEST MEMPHIS   CLOUDY    72  72 100 S5        29.91S
6HR MIN TEMP:  72; 6HR MAX TEMP:  77;

$$

ARZ050-053-066-070-073-040700-
SOUTHWEST ARKANSAS

CITY           SKY/WX    TMP DP  RH WIND       PRES   REMARKS
ARKADELPHIA    CLOUDY    74  73  96 N5        29.94S THUNDER
6HR MIN TEMP:  74; 6HR MAX TEMP:  84; 6HR PCP:  0.01;

CAMDEN         CLOUDY    75  73  94 CALM      29.90F FOG
TEXARKANA      MOCLDY    78  75  90 S9        29.92F
6HR MIN TEMP:  77; 6HR MAX TEMP:  81;

EL DORADO      MOCLDY    78  75  90 S7        29.93F
6HR MIN TEMP:  77; 6HR MAX TEMP:  81;

DE QUEEN       CLOUDY    76  75  97 CALM      29.90F FOG
6HR MIN TEMP:  76; 6HR MAX TEMP:  84; 6HR PCP:  0.18;

$$

ARZ056-057-069-040700-
SOUTHEAST ARKANSAS

CITY           SKY/WX    TMP DP  RH WIND       PRES   REMARKS
PINE BLUFF     CLOUDY    76  73  91 W6        29.90F
6HR MIN TEMP:  73; 6HR MAX TEMP:  76;

STUTTGART      CLOUDY    72  66  83 W7        29.90F
6HR MIN TEMP:  72; 6HR MAX TEMP:  75;

MONTICELLO     MOCLDY    77  75  93 SW8       29.91F
6HR MIN TEMP:  75; 6HR MAX TEMP:  77; 6HR PCP:  0.01;


$$




USA.gov is the U.S. government's official web portal to all federal, state and local government web resources and services.